User: anonymous
Location: Caltech
(34.1382°N, 118.1253°W)
Time: 22:54:19
(UTC-07:00)
Language:

OAO 1 Rocket - Orbit

View from above orbital plane
View from above orbital plane
View from above satellite
View from above satellite

Ground track
Ground track

The orbit data is extracted from the following two-line orbital elements,

1 02144U 66031B   14272.54437535  .00000523  00000-0  16252-3 0  7334
2 02144 035.0425 291.6113 0008974 194.1613 165.8826 14.42170657544846
Epoch (UTC): 29 September 2014 13:03:54
Eccentricity: 0.0008974
inclination: 35.0425°
perigee height: 745 km
apogee height: 758 km
right ascension of ascending node: 291.6113°
argument of perigee: 194.1613°
revolutions per day: 14.42170657
mean anomaly at epoch: 165.8826°
orbit number at epoch: 54484

The dashed part of the orbit path shows where the satellite is in the earth's shadow,  

DLR